This is the latest recevied weather packets stored in our database for station/object JA0BES-13. If no packets are shown the sender has not sent any weather packets the latest 10 day(s).
| Time | Temp. | Humidity | Pressure | Rain* | Wind** | Luminosity | Snow |
|---|---|---|---|---|---|---|---|
| 1777952102 | 18.89° C | 42% | 1017.9 hPa | 0 mm | - | - | - |
| 1777951502 | 18.33° C | 44% | 1017.9 hPa | 0 mm | - | - | - |
| 1777950902 | 17.78° C | 44% | 1017.9 hPa | 0 mm | - | - | - |
| 1777950301 | 17.22° C | 42% | 1017.9 hPa | 0 mm | - | - | - |
| 1777949701 | 17.22° C | 41% | 1018.1 hPa | 0 mm | - | - | - |
| 1777949100 | 17.78° C | 43% | 1018.4 hPa | 0 mm | - | - | - |
| 1777948500 | 17.78° C | 46% | 1018.3 hPa | 0 mm | - | - | - |
| 1777947899 | 16.67° C | 45% | 1018.5 hPa | 0 mm | - | - | - |
| 1777947299 | 16.67° C | 45% | 1018.6 hPa | 0 mm | - | - | - |
| 1777946699 | 16.11° C | 45% | 1018.7 hPa | 0 mm | - | - | - |
| 1777946099 | 16.11° C | 47% | 1018.8 hPa | 0 mm | - | - | - |
| 1777945498 | 15.56° C | 46% | 1018.4 hPa | 0 mm | - | - | - |
| 1777944898 | 15° C | 48% | 1018.4 hPa | 0 mm | - | - | - |
| 1777944297 | 14.44° C | 50% | 1018.7 hPa | 0 mm | - | - | - |
| 1777943697 | 13.89° C | 52% | 1018.8 hPa | 0 mm | - | - | - |
| 1777943097 | 13.89° C | 54% | 1018.8 hPa | 0 mm | - | - | - |
| 1777942497 | 13.33° C | 60% | 1018.9 hPa | 0 mm | - | - | - |
| 1777941896 | 12.78° C | 59% | 1018.9 hPa | 0 mm | - | - | - |
| 1777941296 | 12.78° C | 60% | 1018.8 hPa | 0 mm | - | - | - |
| 1777940695 | 12.22° C | 62% | 1018.6 hPa | 0 mm | - | - | - |
| 1777940095 | 12.22° C | 63% | 1018.8 hPa | 0 mm | - | - | - |
| 1777939495 | 11.67° C | 63% | 1018.7 hPa | 0 mm | - | - | - |
| 1777938895 | 11.67° C | 67% | 1018.7 hPa | 0 mm | - | - | - |
| 1777938294 | 11.67° C | 69% | 1018.6 hPa | 0 mm | - | - | - |
| 1777937694 | 11.11° C | 74% | 1018.7 hPa | 0 mm | - | - | - |
* Rain since midnight (hover to see other rain measurements)
** Current wind speed in m/s (hover to see current wind gust speed)